Location: Aldenham
(51.6667°N, 0.3500°W)
Time: 21:04:09
(UTC+00:00)

Vanguard 2 Rocket - Pass Details

Date: 23 February 2026
Orbit: 553 x 3286 km, 32.9° (Epoch: 8 March)

Event Time Altitude Azimuth Distance (km) Brightness Sun altitude
Rises 10:15:05 0° 216° (SW) 7,003 11.7 23.4°
Reaches altitude 10° 10:20:32 10° 207° (SSW) 6,151 11.6 23.8°
Maximum altitude 10:36:07 30° 156° (SSE) 4,598 13.4 25.0°
Drops below altitude 10° 10:49:46 10° 104° (ESE) 5,406 11.5 25.9°
Sets 10:54:06 0° 95° (E) 6,076 11.5 26.2°
